Location: Zagreb
(45.8000°N, 16.0000°E)
Time: 02:52:17
(UTC+02:00)

Transit 2A Rocket - Pass Details

Date: 26 January 2022
Orbit: 592 x 909 km, 66.7° (Epoch: 26 May)

Event Time Altitude Azimuth Distance (km) Brightness Sun altitude
Rises 00:33:17 0° 327° (NNW) 3,511 - -62.5°
Reaches altitude 10° 00:37:32 10° 355° (N) 2,521 - -62.3°
Maximum altitude 00:40:01 13° 21° (NNE) 2,293 - -62.2°
Drops below altitude 10° 00:42:27 10° 47° (NE) 2,441 - -62.1°
Sets 00:46:25 0° 75° (ENE) 3,294 - -61.9°
